TimeEST,TemperatureF,Dew PointF,Humidity,Sea Level PressureIn,VisibilityMPH,Wind Direction,Wind SpeedMPH,Gust SpeedMPH,PrecipitationIn,Events,Conditions,WindDirDegrees,DateUTC
12:54 AM,39.0,27.0,62,29.83,-9999.0,Calm,Calm,-,N/A,,Unknown,0,2014-02-24 05:54:00
1:54 AM,36.0,28.0,73,29.84,-9999.0,South,3.5,-,N/A,,Unknown,190,2014-02-24 06:54:00
2:54 AM,33.1,28.0,82,29.83,-9999.0,Calm,Calm,-,N/A,,Unknown,0,2014-02-24 07:54:00
3:54 AM,37.0,15.1,41,29.85,-9999.0,Variable,5.8,-,N/A,,Unknown,0,2014-02-24 08:54:00
4:54 AM,33.1,14.0,46,29.87,-9999.0,North,9.2,-,N/A,,Unknown,350,2014-02-24 09:54:00
5:54 AM,30.0,12.9,49,29.89,-9999.0,North,5.8,-,N/A,,Unknown,360,2014-02-24 10:54:00
6:54 AM,28.0,12.9,53,29.91,-9999.0,North,6.9,-,N/A,,Unknown,360,2014-02-24 11:54:00
7:54 AM,28.9,10.9,47,29.94,-9999.0,WNW,10.4,-,N/A,,Unknown,290,2014-02-24 12:54:00
8:54 AM,30.0,10.0,43,29.94,-9999.0,Variable,6.9,-,N/A,,Unknown,0,2014-02-24 13:54:00
9:54 AM,30.9,8.1,38,29.94,-9999.0,NW,11.5,20.7,N/A,,Unknown,310,2014-02-24 14:54:00
10:54 AM,32.0,8.1,37,29.94,-9999.0,Variable,6.9,-,N/A,,Unknown,0,2014-02-24 15:54:00
11:54 AM,30.9,7.0,37,29.94,-9999.0,Variable,3.5,20.7,N/A,,Unknown,0,2014-02-24 16:54:00
12:54 PM,32.0,7.0,35,29.91,-9999.0,Variable,5.8,-,N/A,,Unknown,0,2014-02-24 17:54:00
1:54 PM,32.0,7.0,35,29.91,-9999.0,NW,8.1,18.4,N/A,,Unknown,310,2014-02-24 18:54:00
2:54 PM,30.9,9.0,40,29.92,-9999.0,North,8.1,17.3,N/A,,Unknown,350,2014-02-24 19:54:00
3:54 PM,30.0,12.9,49,29.94,-9999.0,Variable,6.9,19.6,N/A,,Unknown,0,2014-02-24 20:54:00
4:54 PM,28.0,16.0,61,29.98,-9999.0,Variable,6.9,-,N/A,,Unknown,0,2014-02-24 21:54:00
5:54 PM,27.0,15.1,61,30.01,-9999.0,NW,9.2,-,N/A,,Unknown,310,2014-02-24 22:54:00
6:54 PM,26.1,15.1,63,30.04,-9999.0,Variable,4.6,-,N/A,,Unknown,0,2014-02-24 23:54:00
7:54 PM,25.0,14.0,63,30.07,-9999.0,Variable,6.9,-,N/A,,Unknown,0,2014-02-25 00:54:00
8:54 PM,24.1,10.0,55,30.09,-9999.0,North,-9999.0,-,N/A,,Unknown,0,2014-02-25 01:54:00
9:54 PM,24.1,6.1,46,30.10,-9999.0,Variable,4.6,-,N/A,,Unknown,0,2014-02-25 02:54:00
10:54 PM,23.0,5.0,46,30.10,-9999.0,North,-9999.0,-,N/A,,Unknown,0,2014-02-25 03:54:00
11:54 PM,19.0,7.0,59,30.10,-9999.0,Calm,Calm,-,N/A,,Unknown,0,2014-02-25 04:54:00